SM2FXT-13 Weather Reports


Display with metric or nautical units.
time (UTC)temp
F
wind
direction
speed
MPH
gust
MPH
rain 1hr
in
rain 24hr
in
rain mn
in
humidity
%
barometer
mb
20260507114002 41 127 2.0 7.0 0.01 0.09 0.09 94 1014.8
20260507112003 39 138 3.0 7.0 0.01 0.09 0.09 96 1014.8
20260507110004 39 166 3.0 8.0 0.04 0.09 0.09 98 1015.0
20260507105002 38 108 1.0 4.0 0.05 0.08 0.08 97 1015.1
20260507104003 38 110 1.0 4.0 0.06 0.08 0.08 97 1015.2
20260507102003 39 116 2.0 7.0 0.08 0.08 0.08 93 1015.1
20260507101002 40 157 2.0 7.0 0.07 0.07 0.07 91 1014.9
20260507100003 40 132 3.0 5.0 0.06 0.06 0.06 91 1014.4
20260507095003 40 94 3.0 7.0 0.04 0.04 0.04 90 1014.3
20260507094003 39 145 0.0 3.0 0.01 0.01 0.01 86 1014.3
20260507093003 40 258 1.0 4.0 0.00 0.00 0.00 84 1014.5
20260507092003 41 279 1.0 4.0 0.00 0.00 0.00 82 1014.4
20260507091002 45 259 2.0 9.0 0.00 0.00 0.00 73 1014.2
20260507090005 48 303 2.0 7.0 0.00 0.00 0.00 62 1014.0
20260507085002 50 307 2.0 8.0 0.00 0.00 0.00 54 1013.7
20260507084003 53 160 3.0 9.0 0.00 0.00 0.00 49 1013.6
20260507083004 55 139 3.0 8.0 0.00 0.00 0.00 46 1013.6
20260507082003 56 127 3.0 9.0 0.00 0.00 0.00 47 1013.5
20260507081003 54 159 3.0 8.0 0.00 0.00 0.00 51 1013.5
20260507080003 53 132 3.0 8.0 0.00 0.00 0.00 56 1013.5
20260507075003 54 161 1.0 7.0 0.00 0.00 0.00 56 1013.6
20260507074003 52 135 2.0 7.0 0.00 0.00 0.00 55 1013.5
20260507073004 52 116 2.0 7.0 0.00 0.00 0.00 58 1013.7
20260507072003 53 199 2.0 5.0 0.00 0.00 0.00 56 1013.6
20260507071003 52 169 1.0 5.0 0.00 0.00 0.00 59 1013.5
20260507070007 51 250 1.0 4.0 0.00 0.00 0.00 58 1013.5
20260507065002 52 223 1.0 4.0 0.00 0.00 0.00 57 1013.6
20260507064003 52 167 0.0 3.0 0.00 0.00 0.00 59 1013.4
20260507063004 52 175 1.0 3.0 0.00 0.00 0.00 60 1013.5
20260507062003 53 311 0.0 3.0 0.00 0.00 0.00 60 1013.4
20260507061003 51 221 1.0 3.0 0.00 0.00 0.00 62 1013.4
20260507060003 51 234 1.0 4.0 0.00 0.00 0.00 62 1013.3
20260507055003 52 230 1.0 5.0 0.00 0.00 0.00 60 1013.2
20260507054004 53 254 1.0 4.0 0.00 0.00 0.00 59 1013.2
20260507053004 53 304 1.0 4.0 0.00 0.00 0.00 60 1013.3
20260507052003 52 280 1.0 3.0 0.00 0.00 0.00 62 1013.2
20260507051003 51 253 1.0 4.0 0.00 0.00 0.00 63 1013.2
20260507050004 52 271 1.0 3.0 0.00 0.00 0.00 64 1013.2
20260507045003 51 213 0.0 3.0 0.00 0.00 0.00 68 1013.2
20260507044003 49 313 1.0 3.0 0.00 0.00 0.00 69 1013.1
20260507043004 49 215 1.0 4.0 0.00 0.00 0.00 71 1013.1
20260507042003 47 345 1.0 3.0 0.00 0.00 0.00 75 1013.0
20260507041003 46 241 0.0 1.0 0.00 0.00 0.00 80 1013.1
20260507040003 45 0 0.0 1.0 0.00 0.00 0.00 88 1013.1
20260507035003 42 0 0.0 1.0 0.00 0.00 0.00 98 1013.1
20260507034004 38 0 0.0 1.0 0.00 0.00 0.00 100 1013.1
20260507033004 33 0 0.0 1.0 0.00 0.00 0.00 100 1013.0
20260507032003 30 0 0.0 1.0 0.00 0.00 0.00 100 1013.1
20260507031003 28 0 0.0 1.0 0.00 0.00 0.00 100 1012.9
20260507030003 28 0 0.0 1.0 0.00 0.00 0.00 100 1013.0
20260507025003 28 0 0.0 1.0 0.00 0.00 0.00 100 1012.9
20260507022003 27 0 0.0 0.0 0.00 0.00 0.00 100 1012.7
20260507021003 27 0 0.0 0.0 0.00 0.00 0.00 100 1012.7
20260507020004 27 0 0.0 0.0 0.00 0.00 0.00 100 1012.6
20260507015003 28 181 0.0 1.0 0.00 0.00 0.00 100 1012.7
20260507014003 27 0 0.0 0.0 0.00 0.00 0.00 100 1012.6
20260507013004 28 0 0.0 0.0 0.00 0.00 0.00 100 1012.6
20260507012004 28 0 0.0 0.0 0.00 0.00 0.00 100 1012.7
20260507011004 28 0 0.0 0.0 0.00 0.00 0.00 100 1012.6
20260507010004 28 0 0.0 0.0 0.00 0.00 0.00 100 1012.5
20260507005004 29 0 0.0 0.0 0.00 0.00 0.00 100 1012.5
20260507004003 29 0 0.0 1.0 0.00 0.00 0.00 100 1012.4
20260507003004 29 0 0.0 1.0 0.00 0.00 0.00 100 1012.3
20260507002003 29 181 0.0 1.0 0.00 0.00 0.00 100 1012.1
20260507001003 29 0 0.0 0.0 0.00 0.00 0.00 100 1012.1
20260507000004 30 0 0.0 1.0 0.00 0.00 0.00 100 1012.0
20260506235003 30 181 0.0 1.0 0.00 0.00 0.00 100 1011.9
20260506233004 30 202 1.0 3.0 0.00 0.00 0.00 100 1011.9
20260506232002 30 189 0.0 3.0 0.00 0.00 0.00 100 1012.0
20260506231002 30 0 0.0 0.0 0.00 0.00 0.00 100 1011.9
20260506230003 31 1 0.0 1.0 0.00 0.00 0.00 100 1011.9
20260506225001 31 1 0.0 1.0 0.00 0.00 0.00 100 1012.0
20260506224002 31 0 0.0 1.0 0.00 0.00 0.00 99 1011.8
20260506221002 31 20 0.0 3.0 0.00 0.00 0.00 94 1011.7
20260506220005 32 0 0.0 1.0 0.00 0.00 0.00 94 1011.7
20260506215002 32 181 0.0 1.0 0.00 0.00 0.00 93 1011.5
20260506214003 32 181 0.0 3.0 0.00 0.00 0.00 93 1011.4
20260506213003 33 0 0.0 1.0 0.00 0.00 0.00 90 1011.3
20260506212002 33 0 0.0 1.0 0.00 0.00 0.00 89 1011.2
20260506211002 34 135 0.0 1.0 0.00 0.00 0.00 88 1011.3
20260506210004 34 0 0.0 1.0 0.00 0.00 0.00 87 1011.0
20260506205002 35 181 0.0 1.0 0.00 0.00 0.00 86 1011.1
20260506204002 35 181 0.0 1.0 0.00 0.00 0.00 86 1010.9
20260506203003 35 0 0.0 1.0 0.00 0.00 0.00 85 1010.8
20260506202002 36 0 0.0 1.0 0.00 0.00 0.00 83 1010.8
20260506201002 36 171 0.0 1.0 0.00 0.00 0.00 82 1010.7
20260506200003 37 181 0.0 3.0 0.00 0.00 0.00 80 1010.6
20260506195002 38 0 0.0 1.0 0.00 0.00 0.00 79 1010.6
20260506194002 39 0 0.0 0.0 0.00 0.00 0.00 78 1010.6
20260506191002 43 181 0.0 1.0 0.00 0.00 0.00 71 1010.5
20260506190003 43 203 1.0 3.0 0.00 0.00 0.00 71 1010.3
20260506185002 44 205 1.0 3.0 0.00 0.00 0.00 71 1010.2
20260506184002 44 215 0.0 3.0 0.00 0.00 0.00 71 1010.1
20260506183003 44 197 0.0 3.0 0.00 0.00 0.00 71 1010.0
20260506182002 45 173 0.0 1.0 0.00 0.00 0.00 70 1009.8
20260506181002 46 181 0.0 1.0 0.00 0.00 0.00 70 1009.8
20260506175002 45 224 1.0 4.0 0.00 0.00 0.00 70 1009.9
20260506173003 45 184 0.0 3.0 0.00 0.00 0.00 70 1009.8
20260506172002 45 207 1.0 4.0 0.00 0.00 0.00 69 1009.6
20260506171003 45 216 2.0 5.0 0.00 0.00 0.00 69 1009.8
20260506170003 46 238 1.0 7.0 0.00 0.00 0.00 72 1009.7
20260506165002 46 315 1.0 4.0 0.00 0.00 0.00 75 1009.6
20260506162003 48 48 1.0 4.0 0.00 0.00 0.00 61 1009.1
20260506161003 48 91 2.0 5.0 0.00 0.00 0.00 62 1008.9
20260506160003 47 146 2.0 7.0 0.00 0.00 0.00 60 1008.8
20260506155003 47 146 2.0 7.0 0.00 0.00 0.00 65 1009.0
20260506154002 47 176 2.0 5.0 0.00 0.00 0.00 66 1009.0
20260506153004 47 105 2.0 5.0 0.00 0.00 0.00 67 1008.8
20260506152002 47 117 3.0 8.0 0.00 0.00 0.00 62 1008.5
20260506151002 48 107 4.0 9.0 0.00 0.00 0.00 62 1008.6
20260506150003 51 118 4.0 9.0 0.00 0.00 0.00 59 1008.6
20260506145003 54 128 3.0 8.0 0.00 0.00 0.00 57 1008.4
20260506144002 52 99 4.0 8.0 0.00 0.00 0.00 64 1008.4
20260506143003 48 102 3.0 8.0 0.00 0.00 0.00 65 1008.5
20260506142002 50 91 4.0 11.0 0.00 0.00 0.00 60 1008.6
20260506141002 51 113 3.0 7.0 0.00 0.00 0.00 62 1008.4
20260506135002 49 109 3.0 7.0 0.00 0.00 0.00 66 1008.6
20260506133003 48 124 4.0 9.0 0.00 0.01 0.00 67 1008.5
20260506131002 48 109 4.0 11.0 0.00 0.01 0.00 66 1008.4
20260506130004 49 110 5.0 11.0 0.00 0.01 0.00 67 1008.4
20260506122003 49 110 6.0 11.0 0.00 0.01 0.00 68 1008.0
20260506121002 52 107 4.0 11.0 0.00 0.01 0.00 62 1008.0
20260506115003 51 32 1.0 4.0 0.00 0.01 0.00 59 1008.0